Boothville, LA

3:27 AM CDT on May 23, 2018 (GMT -0500)
Boothville

Weather History for KBVE - November, 2013

Change the Weather History Date:

Tuesday, November 5, 2013

  Actual Average (KAXO) Record (KAXO)
Temperature  
Mean Temperature 74 °F -  
Max Temperature 75 °F 68 °F 84 °F (2015)
Min Temperature 72 °F 65 °F 60 °F (1998)
Cooling Degree Days 8    
Growing Degree Days 24 (Base 50)    
Moisture  
Dew Point 65 °F    
Average Humidity 76    
Maximum Humidity 81    
Minimum Humidity 71    
Precipitation  
Precipitation 0.00 in - - ()
Sea Level Pressure  
Sea Level Pressure 30.14 in    
Wind  
Wind Speed 12 mph (East)    
Max Wind Speed 20 mph    
Max Gust Speed 29 mph    
Visibility 10 miles    
Events      
Averages and records for this station are not official NWS values.
T = Trace of Precipitation, MM = Missing Value Source: NWS Daily Summary

Daily Weather History Graph

Daily Weather History Graph

Search for Another Location

Airport or City:

Astronomy

Nov. 05, 2013 Rise Set
Actual Time 6:13 AM CST 5:08 PM CST
Civil Twilight 5:49 AM CST 5:32 PM CST
Nautical Twilight 5:20 AM CST 6:01 PM CST
Astronomical Twilight 4:52 AM CST 6:29 PM CST
Moon 8:22 AM CST (11/5) 7:16 PM CST (11/5)
Length of Visible Light 11h 43m
Length of Day
10h 54m
Waxing Crescent, 7% of the Moon is Illuminated
Nov 5
Waxing Crescent
Nov 9
First Quarter
Nov 17
Full
Nov 25
Last Quarter
Dec 2
New

Hourly Weather History & Observations

Time (CST) Temp. Dew Point Humidity Pressure Visibility Wind Dir Wind Speed Gust Speed Precip Events Conditions
12:51 AM 72.0 °F 63.0 °F 73% 30.14 in 10.0 mi East 8.1 mph - N/A   Overcast
1:51 AM 72.0 °F 64.0 °F 76% 30.13 in 10.0 mi East 11.5 mph - N/A   Overcast
2:51 AM 72.0 °F 64.0 °F 76% 30.12 in 10.0 mi East 9.2 mph - N/A   Overcast
3:51 AM 72.0 °F 64.0 °F 76% 30.13 in 10.0 mi East 9.2 mph - N/A   Overcast
4:51 AM 72.0 °F 64.0 °F 76% 30.13 in 10.0 mi East 11.5 mph - N/A   Overcast
5:51 AM 72.0 °F 64.0 °F 76% 30.14 in 10.0 mi East 11.5 mph - N/A   Overcast
6:51 AM 73.0 °F 64.0 °F 73% 30.15 in 9.0 mi East 9.2 mph - N/A   Overcast
7:51 AM 73.0 °F 64.9 °F 76% 30.17 in 9.0 mi East 11.5 mph - N/A   Overcast
8:51 AM 73.0 °F 66.0 °F 79% 30.18 in 9.0 mi East 16.1 mph 25.3 mph N/A   Overcast
9:51 AM 73.9 °F 66.0 °F 76% 30.19 in 8.0 mi East 15.0 mph 26.5 mph N/A   Overcast
10:51 AM 75.0 °F 66.0 °F 73% 30.18 in 9.0 mi East 17.3 mph 25.3 mph N/A   Mostly Cloudy
11:51 AM 75.9 °F 66.0 °F 71% 30.16 in 10.0 mi East 16.1 mph 28.8 mph N/A   Partly Cloudy
12:51 PM 75.0 °F 66.0 °F 73% 30.14 in 10.0 mi East 17.3 mph 26.5 mph N/A   Mostly Cloudy
1:09 PM 75.2 °F 66.2 °F 73% 30.14 in 10.0 mi East 16.1 mph 25.3 mph N/A   Mostly Cloudy
1:51 PM 73.9 °F 66.0 °F 76% 30.13 in 10.0 mi East 19.6 mph 25.3 mph N/A   Scattered Clouds
2:51 PM 73.9 °F 66.0 °F 76% 30.12 in 10.0 mi East 16.1 mph 25.3 mph N/A   Mostly Cloudy
3:51 PM 73.0 °F 66.0 °F 79% 30.12 in 10.0 mi East 17.3 mph 26.5 mph N/A   Overcast
4:51 PM 72.0 °F 66.0 °F 81% 30.11 in 10.0 mi East 15.0 mph 24.2 mph N/A   Overcast
5:51 PM 72.0 °F 66.0 °F 81% 30.12 in 10.0 mi East 12.7 mph 20.7 mph N/A   Mostly Cloudy
6:51 PM 72.0 °F 66.0 °F 81% 30.13 in 10.0 mi East 13.8 mph 20.7 mph N/A   Partly Cloudy
7:51 PM 72.0 °F 66.0 °F 81% 30.13 in 10.0 mi East 17.3 mph - N/A   Clear
8:51 PM 73.0 °F 66.0 °F 79% 30.13 in 10.0 mi East 15.0 mph 21.9 mph N/A   Clear
9:51 PM 73.0 °F 64.9 °F 76% 30.14 in 10.0 mi East 11.5 mph 18.4 mph N/A   Partly Cloudy
10:51 PM 73.0 °F 64.9 °F 76% 30.13 in 10.0 mi East 10.4 mph - N/A   Mostly Cloudy
11:51 PM 73.0 °F 64.9 °F 76% 30.11 in 10.0 mi East 10.4 mph - N/A   Clear